Wind_Speed
36 36 37 37 37 38 38 37 36 36 36 36 37 37 38 39 39 39 40 40 40 40 39 39 38 38 39 39 39 40 40 41 42 43 44 45 45 46 47 48 48 47 46 46 46 47 48 48 47 44 43 43 42 41 41 41 40 39 35 31 29 28 27 26 26 26 27 28 29 30 31 32 34 35 36 38 39 41 42 43 44 45 46 47 47
39 38 38 38 38 39 39 38 38 38 38 38 39 39 40 40 40 40 40 40 40 39 38 38 38 39 40 40 41 41 42 43 44 45 46 46 46 47 47 47 47 47 47 47 47 48 48 48 46 44 44 43 41 40 40 39 38 34 31 28 27 26 26 25 25 26 27 28 30 32 33 35 35 36 37 38 40 41 43 44 45 46 47 48 48
40 40 40 40 40 41 40 40 40 40 40 40 40 41 41 41 41 41 41 40 40 39 38 39 39 40 41 42 43 44 44 45 46 47 47 47 47 47 47 47 48 48 47 47 47 48 48 46 45 44 43 41 39 39 38 37 34 30 28 26 25 25 25 26 26 28 29 30 32 33 34 36 36 36 37 39 40 42 44 45 46 47 48 49 49
41 41 41 42 42 42 42 42 42 42 42 42 42 42 42 42 42 42 42 41 40 40 40 40 41 42 43 44 45 46 47 47 48 48 47 47 47 47 47 48 49 48 47 47 48 48 47 45 44 43 41 39 38 38 36 33 30 28 27 26 25 26 26 27 29 30 31 33 34 35 36 36 36 36 38 40 41 43 45 46 47 48 50 50 50
42 42 42 42 42 43 43 43 43 43 43 43 43 43 43 43 43 43 43 42 42 41 42 42 43 44 45 46 47 48 48 49 49 48 47 47 47 47 48 49 49 48 47 48 48 47 45 44 42 40 38 37 37 35 32 30 28 27 26 25 26 26 26 28 30 32 34 35 36 36 36 36 36 37 39 41 42 44 45 47 48 49 50 51 51
43 42 43 43 43 43 44 44 44 44 44 44 44 44 43 44 44 44 44 44 44 44 44 45 46 46 47 48 49 49 49 49 49 48 47 47 47 49 50 50 48 47 47 48 47 45 43 42 40 38 36 35 33 30 28 27 26 26 25 25 25 25 26 30 33 34 35 35 35 36 36 36 37 38 40 41 43 44 46 47 48 49 51 51 52
47 45 43 44 44 45 45 45 45 45 45 45 45 44 44 45 46 46 46 46 46 46 47 47 48 49 49 50 50 50 50 49 48 47 47 47 48 50 50 48 46 47 48 48 45 43 41 40 38 36 34 32 29 27 26 25 25 26 26 26 25 26 30 34 35 35 35 36 36 37 38 38 38 40 41 42 44 45 47 48 48 50 51 52 53
51 49 47 45 45 46 46 46 46 46 46 46 46 46 46 47 47 48 48 48 48 49 49 49 50 51 51 51 50 50 50 48 47 47 48 49 50 50 48 47 46 48 48 46 43 41 39 37 35 33 31 29 27 26 25 25 26 26 27 26 27 31 35 37 36 36 37 38 39 39 39 39 40 41 42 44 45 46 48 48 49 51 52 53 54
50 50 49 48 47 47 47 47 47 48 48 48 48 48 48 49 49 50 50 50 50 51 51 51 52 52 52 51 51 50 48 47 47 48 49 50 49 48 47 46 47 48 46 43 41 39 37 35 33 31 29 27 26 26 26 26 28 28 28 29 31 35 38 38 38 39 41 42 42 41 40 40 41 43 44 45 47 48 49 49 50 52 53 54 54
48 48 48 49 48 48 47 47 48 48 49 50 50 50 51 51 51 51 52 52 52 53 53 53 53 53 52 52 51 49 48 47 48 49 50 49 48 47 47 47 47 47 44 41 40 38 36 34 32 30 29 28 27 27 28 29 30 30 31 32 35 38 39 40 41 42 44 44 43 42 41 42 43 44 45 47 48 49 50 51 51 52 54 54 54
46 46 47 48 48 49 49 49 49 49 50 51 52 52 53 53 53 54 54 55 55 55 55 55 55 54 54 53 51 49 48 48 49 49 49 48 48 48 47 47 47 45 42 40 39 38 35 33 32 31 31 30 29 29 30 31 32 33 34 36 38 41 42 42 43 44 45 45 44 44 43 44 45 46 47 48 50 51 52 52 52 53 53 54 54
46 46 46 47 48 49 50 51 51 52 52 53 54 54 55 55 56 57 57 58 58 58 58 57 56 56 54 53 51 49 48 49 49 49 49 49 48 48 48 47 46 44 41 40 39 38 36 35 34 34 34 33 32 32 33 34 36 37 38 40 42 43 44 44 45 45 46 45 44 44 45 46 47 48 49 50 51 53 53 53 53 53 53 54 54
49 48 48 48 49 50 51 52 53 54 55 55 56 56 57 58 58 59 60 60 60 60 59 58 57 56 54 52 50 49 48 49 50 50 50 49 49 48 48 48 46 43 41 41 40 40 38 37 37 37 36 36 35 36 37 38 39 41 42 43 45 45 45 45 46 46 46 45 45 45 47 48 49 50 51 52 53 54 54 54 54 54 54 55 55
51 51 50 51 51 52 53 53 55 56 57 57 58 59 59 60 60 61 61 62 62 61 60 59 58 56 55 53 51 50 49 50 51 51 50 49 49 49 48 48 46 43 42 42 42 42 41 40 40 40 39 39 39 40 41 42 43 44 45 46 47 47 47 47 46 46 46 46 46 47 49 50 51 52 53 54 54 55 55 56 55 55 56 56 56
51 51 51 52 53 54 54 55 56 58 59 60 61 62 62 63 63 63 63 64 64 63 62 61 59 57 56 54 52 51 51 51 51 50 50 50 49 49 49 49 47 44 43 44 44 44 44 43 43 43 43 42 43 44 44 45 46 47 47 48 48 48 48 48 47 47 47 47 48 49 50 52 53 53 54 55 56 56 57 57 57 57 57 57 56
50 51 51 52 54 55 56 58 59 60 61 63 64 65 65 66 66 65 66 66 66 66 65 63 61 59 57 56 55 54 53 52 51 51 51 51 50 50 51 50 48 46 45 46 46 47 47 47 46 47 46 46 46 47 48 49 49 49 49 49 49 50 50 50 49 49 49 50 51 52 53 54 54 55 56 56 57 57 58 57 57 58 58 58 57
52 53 53 54 56 56 57 59 61 62 64 65 66 68 68 68 68 68 68 69 69 68 67 65 63 61 59 58 57 56 55 53 52 51 52 52 51 52 52 51 51 49 47 48 48 49 50 50 50 50 49 49 49 50 51 51 51 51 51 50 51 52 52 52 52 52 52 53 53 54 55 55 56 56 57 57 58 58 58 58 58 59 59 58 58
57 57 57 58 58 58 58 59 61 63 65 67 68 69 70 70 71 71 71 71 70 70 68 67 65 62 60 59 58 57 56 53 52 52 53 53 53 53 53 53 52 51 49 49 51 51 52 53 52 52 52 51 51 52 52 52 52 52 51 51 52 53 53 54 54 54 54 54 54 55 55 56 56 57 57 58 59 59 59 59 59 59 59 58 58
61 60 61 61 60 60 60 61 61 63 65 67 69 70 72 73 73 73 73 72 70 69 67 65 62 60 58 58 57 56 54 53 52 53 53 54 53 54 54 54 54 53 51 51 52 53 54 54 54 53 53 53 53 53 53 53 53 52 52 52 53 54 54 55 55 54 54 54 54 55 55 56 56 57 58 59 59 59 59 59 59 59 58 58 58
63 63 63 63 62 61 62 62 62 63 65 68 69 71 72 73 74 73 72 71 69 68 66 63 60 58 57 56 56 55 53 53 53 53 54 54 54 54 55 54 54 54 54 53 53 54 55 55 55 54 54 53 53 53 53 53 53 53 53 54 54 55 55 55 55 54 54 54 55 55 56 56 57 58 58 59 59 59 60 59 59 58 58 58 58
64 64 64 63 62 63 64 65 65 66 67 69 70 71 71 71 70 70 70 70 69 67 65 62 59 57 56 55 54 54 53 53 53 53 54 55 55 55 55 55 54 55 56 55 55 55 55 55 55 55 54 53 53 53 53 53 53 53 54 54 55 55 55 55 55 55 55 55 56 56 57 57 58 58 59 59 60 60 59 59 59 58 58 58 58
64 63 64 63 62 62 64 66 68 69 69 69 68 68 67 66 66 66 66 66 66 65 63 60 58 56 55 54 54 53 53 53 53 54 54 55 55 55 55 55 55 56 57 58 57 56 56 55 54 54 54 53 53 53 53 53 53 53 54 54 55 55 55 56 56 56 56 57 57 58 58 58 59 59 60 60 60 60 59 59 59 59 59 59 59
64 64 64 64 64 63 63 66 69 70 69 67 66 65 63 62 61 62 62 62 62 62 60 58 57 55 54 54 53 53 53 53 53 53 54 55 55 55 55 55 56 57 58 58 59 58 57 56 55 54 54 53 53 53 53 53 53 54 54 55 55 55 56 57 57 57 58 58 59 59 59 59 60 60 60 60 60 60 59 59 59 59 59 60 60
63 64 64 65 64 63 63 64 66 67 66 63 62 60 59 58 57 58 59 60 60 60 59 58 57 55 54 54 54 54 53 53 53 54 54 55 55 55 55 55 56 57 57 57 57 57 56 56 55 54 53 53 53 53 54 54 54 54 55 55 56 56 57 58 58 59 59 60 59 59 59 60 60 61 61 61 60 60 60 60 59 59 60 61 61
63 63 65 65 65 63 62 62 62 62 60 58 57 55 54 53 54 55 56 57 58 58 58 58 57 56 54 53 54 54 53 53 53 54 55 55 55 55 55 56 56 56 56 55 55 55 54 54 54 53 53 54 54 54 54 54 55 55 56 56 56 57 58 59 59 60 60 60 60 59 59 60 60 61 61 61 61 60 60 60 60 60 61 61 62
63 63 65 66 65 64 62 62 61 59 57 55 54 53 52 53 53 54 55 56 56 56 57 56 55 54 53 53 54 54 54 53 54 55 55 56 55 55 56 56 56 55 54 54 54 53 53 53 52 53 54 55 55 55 55 55 56 56 57 57 57 58 59 60 61 61 61 61 60 60 60 60 61 61 61 61 61 61 60 60 60 61 62 62 63
63 64 66 66 66 65 64 63 62 59 56 54 53 53 53 54 55 56 56 56 56 56 55 54 54 53 53 53 54 54 54 54 55 55 56 56 56 56 56 56 55 54 53 53 53 52 52 52 53 54 55 55 55 55 56 56 57 57 57 58 58 59 60 61 62 62 62 61 61 60 60 61 61 61 61 61 61 61 61 61 61 62 63 64 65
64 66 67 68 67 67 66 64 61 58 56 54 53 54 54 55 56 57 57 57 57 56 55 54 53 53 52 53 54 54 54 54 55 56 56 57 56 56 56 55 55 54 53 53 52 52 52 53 54 55 55 55 56 56 57 57 57 57 58 59 60 61 62 63 63 63 62 62 61 61 61 61 61 61 61 62 62 62 62 62 63 64 66 67 68
66 67 68 69 69 69 67 63 60 58 56 55 54 54 54 55 56 56 57 57 57 56 56 55 54 53 53 53 54 54 54 55 56 57 58 57 57 56 55 54 54 54 54 53 53 53 54 55 55 56 56 56 56 57 58 58 58 58 59 60 62 63 63 64 64 63 63 63 62 62 62 62 61 62 62 62 63 63 63 64 65 67 68 69 71
66 67 68 69 70 69 67 63 60 59 58 57 55 54 53 54 55 55 55 56 56 57 57 56 56 55 54 54 54 54 55 57 58 58 58 57 56 55 54 54 54 54 54 54 54 54 55 56 56 57 57 57 58 58 58 58 58 59 60 61 63 64 64 64 64 64 63 63 62 63 63 62 62 62 62 63 63 64 65 66 67 68 70 71 72
65 66 67 67 68 68 67 64 62 61 59 58 56 54 53 54 55 54 54 55 57 57 58 57 57 56 55 55 55 56 57 58 59 59 59 58 57 56 55 55 55 55 55 55 55 56 57 57 57 58 58 58 59 59 59 59 59 60 61 62 64 64 65 65 65 64 64 63 63 63 63 63 63 63 63 64 64 65 66 67 68 69 71 72 74
64 65 66 66 67 67 67 65 63 61 60 60 59 57 56 57 57 55 55 56 57 58 58 57 57 57 57 57 57 57 58 59 60 60 59 58 57 56 55 55 56 56 56 56 57 57 58 58 59 59 59 60 60 60 59 60 60 61 62 63 64 65 65 65 65 64 63 63 63 64 64 64 63 63 64 64 65 66 67 68 69 70 72 74 76
61 63 65 66 67 67 67 65 63 61 61 62 61 60 60 61 60 59 58 58 59 59 60 59 59 59 59 59 59 59 59 60 60 60 60 59 58 57 56 56 57 57 57 57 58 59 59 60 60 61 61 61 60 60 60 60 61 62 63 64 65 65 66 65 64 64 64 64 64 64 64 65 65 64 64 65 66 67 68 69 70 72 74 76 79
58 60 62 65 67 67 67 65 64 63 63 64 64 63 63 63 62 61 60 60 60 61 62 62 61 61 61 61 60 60 60 60 60 61 60 59 58 57 58 58 58 59 59 59 60 60 61 61 62 62 62 61 61 61 61 61 62 63 64 65 66 66 66 65 64 64 64 64 64 65 65 65 66 66 66 66 67 68 70 70 72 74 77 79 82
57 57 59 62 64 66 66 65 65 65 65 65 64 63 62 62 62 62 61 61 61 62 63 63 63 62 62 61 61 60 60 60 61 61 61 60 59 59 59 60 60 60 61 61 61 62 63 63 63 63 63 62 61 61 62 62 63 65 65 66 66 66 65 64 64 65 65 65 65 65 66 66 66 67 68 68 69 70 71 72 74 77 80 83 85
58 57 58 59 61 62 63 64 64 65 65 64 63 61 60 60 61 61 61 62 62 62 63 63 63 63 63 62 61 60 60 60 61 62 61 61 61 61 61 62 62 63 63 63 63 64 64 64 64 64 63 62 62 62 63 64 65 66 66 66 66 65 65 65 65 65 66 66 66 66 66 66 67 68 70 71 72 72 73 75 78 81 83 85 87
57 57 57 57 58 59 60 61 62 63 63 63 62 60 60 60 60 61 61 61 61 61 62 62 63 64 64 63 62 61 61 61 62 62 63 63 63 63 63 64 64 65 65 65 65 65 65 65 65 64 63 63 63 64 65 65 66 66 66 66 65 65 65 65 65 66 66 66 67 67 67 68 69 70 72 73 74 75 76 79 81 84 86 88 89
58 57 57 57 57 57 58 59 61 62 63 63 62 61 60 61 61 60 60 60 60 61 62 63 64 64 63 63 63 62 63 63 63 64 64 65 65 65 65 66 66 66 66 66 65 66 66 66 65 64 64 64 65 65 66 66 66 66 66 66 65 65 65 65 66 66 66 67 68 68 69 70 71 72 74 75 76 78 80 82 84 87 88 89 90
60 59 58 58 57 57 57 58 60 61 62 63 63 62 62 61 61 61 60 61 61 61 62 62 63 63 63 63 63 64 64 65 65 65 66 66 66 67 67 67 67 67 66 66 67 67 67 66 66 65 66 66 66 66 66 67 66 66 66 66 66 66 66 66 66 67 67 67 68 69 70 72 73 74 75 77 79 81 83 85 87 89 90 91 91
61 60 59 58 57 57 57 57 58 59 61 62 63 63 62 62 61 61 62 62 62 62 62 62 62 63 63 64 64 65 65 66 66 67 68 68 68 68 68 68 68 68 68 68 68 68 67 67 67 67 67 67 67 67 67 67 67 66 66 66 66 66 67 67 67 67 68 69 70 71 72 74 75 76 78 80 82 83 85 87 89 90 91 91 92
61 61 61 60 58 57 56 56 56 57 58 60 61 61 61 61 61 61 62 62 62 62 62 63 63 64 64 65 66 66 67 68 68 69 69 69 70 70 70 69 69 69 69 69 68 68 68 68 68 68 68 68 68 68 67 67 67 67 66 66 67 68 68 68 68 69 70 72 73 74 75 77 78 79 81 83 84 86 87 89 91 91 92 92 92
62 61 61 60 60 58 57 57 56 57 57 58 59 60 60 60 61 61 62 62 63 63 64 64 65 65 66 67 67 68 69 70 70 71 71 71 71 71 71 70 70 70 69 69 69 68 68 69 69 69 69 69 68 67 67 67 67 66 66 67 68 68 68 68 70 72 74 76 77 78 79 80 81 82 84 85 86 88 89 90 91 92 92 92 92
64 62 61 61 60 60 59 59 58 59 59 59 59 59 60 60 60 61 61 62 63 64 65 65 66 67 68 69 70 71 71 72 72 72 72 72 72 72 71 71 70 69 69 69 69 69 69 70 70 70 70 69 68 67 67 67 67 66 67 67 67 67 68 71 74 77 78 79 80 81 82 83 84 84 85 87 88 89 90 91 91 91 91 92 93
65 63 62 61 61 61 62 61 61 61 61 61 61 61 61 61 61 62 62 63 64 65 66 67 67 68 70 71 72 72 73 73 73 73 73 73 73 72 71 70 69 69 69 69 70 70 71 71 71 71 69 68 68 68 67 67 66 66 66 66 67 69 72 76 78 79 80 81 82 83 84 85 85 86 87 88 89 90 91 91 91 91 91 92 93
66 63 61 62 62 62 62 62 63 63 63 63 63 63 62 62 63 63 64 65 66 67 67 68 68 69 71 72 72 73 73 74 74 74 74 74 73 72 71 70 70 70 70 70 71 72 72 72 71 70 68 68 67 67 66 66 66 66 66 67 69 73 76 78 78 79 80 82 83 84 85 85 86 86 87 88 89 90 90 90 90 91 92 93 93
68 64 61 61 61 61 60 61 61 61 62 63 64 65 65 65 65 65 66 67 67 68 68 69 69 71 71 72 73 73 74 74 75 74 74 73 72 72 71 71 70 70 71 71 71 70 69 68 67 66 66 66 66 66 66 66 66 67 68 70 72 74 76 77 79 80 81 83 84 85 85 85 86 87 88 88 89 89 89 90 91 92 92 92 92
66 62 62 62 61 59 59 59 59 59 59 59 60 62 63 65 66 67 68 68 68 68 68 69 70 71 71 72 72 73 73 74 74 74 73 73 72 72 72 71 71 70 70 70 69 67 66 65 64 63 64 65 66 66 67 68 69 70 71 72 74 76 77 79 80 81 82 83 83 84 84 85 86 87 87 88 88 88 89 90 91 92 92 91 90
61 57 57 59 60 60 59 58 58 57 57 57 58 58 59 61 63 64 65 66 66 66 66 67 68 69 71 72 72 73 73 73 73 73 73 73 72 72 71 70 69 69 68 68 67 67 66 65 64 64 65 67 68 69 71 72 73 74 74 76 77 79 80 81 82 82 82 83 83 83 84 85 86 86 87 87 87 88 90 91 91 91 90 89 87
63 59 56 55 57 59 60 59 58 58 59 60 60 60 59 60 61 62 63 63 63 63 64 65 66 68 69 70 71 72 72 72 72 72 73 73 72 71 70 69 69 68 68 69 69 69 67 66 66 67 69 71 72 73 74 75 76 77 78 80 81 82 82 83 83 83 82 82 83 83 84 85 85 85 86 86 88 89 90 91 91 90 88 86 84
61 60 58 57 57 59 60 60 60 61 62 63 63 63 62 62 62 63 63 63 64 64 65 66 66 67 68 69 70 71 71 72 72 73 73 73 72 71 71 70 70 70 70 70 71 70 70 70 71 72 74 75 75 75 76 77 79 80 82 83 83 83 83 83 83 82 82 82 83 84 84 84 84 85 86 87 89 90 90 90 89 88 85 83 79
59 56 57 59 59 59 60 61 62 61 62 63 64 65 66 65 65 65 66 66 66 66 66 67 67 68 69 70 71 72 72 73 74 74 74 74 73 73 72 73 73 73 72 72 72 72 73 74 75 76 78 78 78 78 79 80 82 83 84 84 84 84 83 83 82 82 82 83 83 83 83 83 84 85 87 88 89 90 89 89 87 85 82 78 74
Wind_Direction
261 261 261 261 261 262 263 263 262 262 263 264 264 265 265 266 266 266 266 267 268 268 269 269 268 268 268 268 269 270 271 273 275 277 278 281 284 287 290 293 296 298 299 300 300 300 301 301 301 301 302 303 304 304 304 307 309 312 315 319 321 324 328 332 333 333 332 334 337 338 340 340 339 337 335 333 332 331 331 330 329 329 329 328 327
260 260 260 260 260 261 261 261 261 261 262 263 264 265 266 266 266 265 266 267 267 268 268 267 267 268 268 269 270 271 271 273 275 277 279 282 285 288 291 294 296 298 299 299 299 299 299 299 299 300 301 302 302 302 304 307 309 311 313 316 320 323 327 332 335 336 337 338 340 340 340 339 337 334 332 331 330 330 329 329 328 327 327 326 325
259 259 259 259 259 260 260 260 261 261 261 262 263 264 265 265 265 265 266 267 268 268 267 267 268 269 270 271 271 272 273 274 276 278 281 284 286 289 292 295 297 298 298 297 297 296 297 298 299 300 300 301 301 302 304 306 307 308 311 315 321 325 330 335 338 340 340 339 338 336 333 331 330 330 329 329 329 328 327 327 326 326 325 324 324
257 257 258 258 258 258 259 260 260 260 261 261 262 262 263 263 264 265 267 268 269 268 268 268 269 271 272 272 272 273 273 275 277 279 282 285 287 290 293 295 297 296 295 295 294 295 297 298 298 298 299 299 300 302 303 303 304 307 310 317 323 327 332 336 337 336 335 332 328 325 323 325 327 328 327 326 327 326 325 325 325 325 324 323 322
255 255 255 256 257 257 258 259 259 260 260 260 261 261 262 263 265 267 268 269 269 268 268 269 270 271 271 272 272 273 275 276 278 281 283 286 288 291 293 295 295 293 293 293 294 296 297 298 297 297 297 298 299 300 300 301 303 306 311 318 323 327 330 331 329 326 323 321 319 319 320 323 325 325 323 324 324 324 324 324 324 323 322 321 320
254 254 254 255 256 257 257 258 259 259 260 261 261 262 262 263 265 266 267 268 268 268 268 268 269 270 271 272 273 275 276 278 280 282 284 286 288 291 292 293 292 291 292 293 294 296 297 296 295 294 295 296 297 297 297 299 303 306 311 317 321 322 322 321 318 316 314 315 315 316 318 319 320 320 320 321 321 321 322 323 322 321 320 319 319
254 255 255 255 256 256 257 258 258 259 260 261 261 262 263 263 265 266 266 267 267 267 268 268 269 270 272 274 275 276 277 279 281 282 284 286 288 289 290 289 289 290 291 293 295 296 294 292 292 292 293 293 293 293 295 299 303 305 309 313 313 312 312 312 310 309 310 311 312 312 313 314 314 314 315 317 318 318 319 320 319 319 319 319 318
253 254 255 256 256 257 257 258 259 260 260 261 261 261 262 263 264 264 265 266 267 267 268 268 269 271 273 275 276 277 278 279 280 282 284 285 286 287 287 287 288 290 291 293 294 293 290 288 288 289 289 289 289 292 294 297 300 302 303 303 302 303 306 306 305 306 307 307 307 307 308 309 310 310 312 314 315 316 317 317 317 317 318 319 319
251 253 254 255 256 257 258 259 259 260 261 261 262 262 262 262 263 264 265 266 266 267 268 268 269 271 273 275 277 278 279 279 280 282 283 284 285 285 285 285 287 289 291 292 291 288 285 285 285 284 284 285 287 290 291 293 295 295 294 292 294 299 302 303 303 302 302 303 303 303 304 305 306 308 309 311 312 313 314 315 315 316 318 319 320
250 251 253 254 255 256 257 258 259 260 260 261 261 261 261 262 263 264 265 266 266 267 268 268 270 271 273 276 277 279 279 279 280 281 282 282 283 283 283 284 287 289 290 289 285 282 281 281 281 280 281 281 283 285 286 288 289 288 286 287 290 295 298 299 299 298 298 299 299 299 302 303 305 306 307 309 310 311 312 313 314 316 318 319 319
250 251 252 253 254 255 256 257 258 259 259 259 260 260 260 261 261 262 264 265 266 267 267 269 270 271 273 276 277 278 278 278 279 280 280 281 281 281 282 283 286 287 287 284 280 278 278 277 276 277 277 277 278 280 282 284 284 284 283 284 287 290 293 295 296 295 296 296 296 299 301 302 303 305 306 307 309 310 311 313 314 315 317 317 317
251 252 252 253 254 255 256 257 258 258 258 259 259 259 259 260 260 262 263 264 265 266 267 269 270 271 273 276 277 277 277 277 278 278 279 279 279 279 280 283 284 284 282 278 276 275 275 273 273 274 274 275 276 277 279 280 280 280 281 282 284 286 289 291 292 293 294 295 297 300 301 302 303 304 305 307 308 309 311 312 313 314 315 315 316
252 253 254 254 255 255 256 257 258 258 258 258 259 259 259 260 261 262 263 264 265 267 268 269 270 272 274 276 277 278 277 277 277 277 277 277 277 278 279 281 282 280 277 274 273 273 272 271 271 271 272 273 274 275 276 277 277 278 280 281 283 285 288 289 291 293 295 297 299 300 301 302 302 303 305 306 307 309 310 311 312 313 314 315 316
252 253 254 254 255 255 256 256 257 258 259 259 260 260 260 261 262 263 264 265 267 268 269 270 271 273 275 277 278 278 276 276 275 276 276 276 276 277 278 279 279 276 272 272 271 271 270 269 269 270 271 272 273 275 276 277 278 279 280 282 284 287 289 291 294 297 298 299 300 300 300 302 302 304 305 306 307 308 309 310 311 312 314 315 317
252 253 253 254 254 255 255 255 255 256 257 258 259 260 260 261 262 263 265 266 267 268 270 271 272 274 276 277 278 277 276 275 275 275 275 275 275 276 276 277 276 272 269 269 269 268 268 268 268 269 271 272 273 275 276 278 280 282 284 286 288 290 293 295 298 299 299 299 299 300 301 302 303 304 305 306 307 308 309 310 311 312 314 316 317
252 253 254 254 254 254 253 253 253 254 255 256 257 258 259 260 261 262 264 265 267 268 270 271 273 274 275 276 277 277 275 274 274 274 274 274 274 274 275 275 274 270 268 268 268 268 268 268 269 269 271 272 274 276 278 280 282 285 287 289 291 294 296 297 298 299 299 299 300 301 301 302 303 304 305 306 307 308 309 310 311 313 315 316 317
253 254 255 255 254 254 253 252 252 253 254 254 255 256 257 258 259 260 262 263 265 266 268 270 271 273 274 275 276 276 275 274 274 273 272 272 273 273 274 274 273 270 268 268 268 268 268 269 270 271 273 274 276 279 281 282 284 286 289 291 293 294 296 297 298 299 300 300 301 301 302 302 303 304 305 306 307 308 308 310 311 313 315 316 317
254 254 255 256 255 254 253 253 252 253 254 254 255 256 257 257 258 259 260 261 263 265 267 268 270 272 273 274 274 274 274 274 273 271 271 271 272 272 273 273 272 271 270 269 269 269 269 270 272 274 275 277 279 281 283 286 288 289 291 293 294 295 297 298 298 299 300 300 301 301 301 302 303 304 305 306 306 307 308 310 312 313 314 316 317
257 257 257 257 256 255 255 255 254 254 254 255 255 256 257 257 258 258 260 261 263 265 267 269 270 272 272 273 273 273 272 271 270 269 270 270 271 271 272 272 272 271 271 270 270 269 270 271 273 275 277 279 281 283 285 288 290 292 293 295 295 295 296 297 298 298 299 299 299 300 301 302 303 304 305 305 306 307 309 311 312 313 314 315 316
260 260 260 259 259 259 258 258 258 257 256 256 256 256 257 257 258 259 261 263 265 267 268 270 271 272 272 272 271 270 270 269 268 268 269 269 270 271 272 272 272 272 271 271 271 270 271 272 274 276 278 280 282 285 287 289 291 293 293 293 293 294 295 296 297 298 298 298 299 300 301 302 303 303 304 305 306 308 309 311 312 313 314 315 315
261 262 262 262 262 262 262 262 261 259 258 257 257 257 258 259 261 262 263 265 266 268 270 271 272 272 271 270 269 268 267 267 267 267 268 269 270 270 272 273 273 272 272 272 272 272 273 274 276 278 280 283 285 287 289 290 291 291 291 291 292 294 295 295 296 297 297 298 299 300 302 302 302 303 304 305 307 308 310 311 312 312 313 314 315
264 265 265 264 264 263 263 263 263 261 260 260 261 261 261 262 264 265 266 267 268 269 270 271 271 271 270 269 268 267 266 266 266 266 267 268 269 271 272 273 274 273 273 273 274 275 276 278 280 282 284 286 287 288 289 289 289 289 289 291 292 293 294 294 295 296 297 298 299 300 301 302 302 304 305 306 307 308 310 311 311 312 313 313 314
264 265 266 267 266 265 264 263 263 263 263 264 266 266 267 267 267 268 268 269 269 270 271 271 271 270 269 268 267 267 266 266 265 266 266 268 269 271 272 273 274 274 274 275 276 278 280 282 284 286 286 287 287 287 287 287 287 288 289 291 291 292 293 294 295 296 297 298 299 300 301 302 303 304 305 306 307 309 310 310 311 312 312 312 313
262 264 266 266 266 266 264 262 262 263 265 267 269 270 271 271 271 270 270 270 271 272 272 271 271 270 268 267 266 266 266 265 265 265 266 268 270 271 272 274 275 276 277 278 279 281 282 284 285 285 285 285 285 285 286 286 286 288 289 290 291 292 292 293 294 295 296 297 298 300 301 303 304 304 305 306 308 309 310 310 311 311 311 312 313
262 263 264 265 265 264 263 262 262 263 266 268 270 271 272 272 272 272 271 271 272 272 271 271 270 268 267 266 265 266 266 266 265 266 267 269 270 272 273 274 275 276 278 279 280 281 282 283 283 283 283 283 283 284 284 285 286 288 289 290 290 291 291 292 293 294 295 296 298 300 302 303 303 304 306 307 308 309 309 310 310 309 310 311 312
261 262 263 264 264 264 263 262 262 262 264 267 269 270 271 270 270 269 269 270 270 270 271 271 270 269 267 265 265 266 266 266 266 266 268 269 271 272 273 274 275 276 278 279 280 282 282 283 283 282 282 282 283 283 284 285 287 288 289 289 290 290 291 292 292 293 295 297 299 301 302 303 304 305 306 307 308 308 308 308 308 308 309 310 311
261 261 261 261 262 263 263 262 261 262 265 267 268 268 267 267 267 267 267 268 270 270 271 271 271 269 268 266 266 266 266 266 266 267 268 270 271 272 273 274 275 276 278 279 281 282 282 282 281 281 281 281 282 283 284 285 286 287 288 289 289 289 290 291 292 294 296 298 300 301 302 303 304 305 306 307 307 307 306 306 306 307 308 309 310
259 259 259 259 260 261 262 262 262 263 265 266 266 264 264 264 265 266 267 268 270 271 272 272 272 270 268 267 267 267 267 266 266 267 268 269 270 271 273 274 275 276 277 279 280 280 280 279 279 279 280 281 282 283 284 285 286 287 288 288 289 289 290 291 292 294 297 299 301 302 302 303 304 305 306 306 306 306 305 305 306 307 308 309 310
257 258 258 258 259 260 262 262 262 262 263 264 262 261 262 263 264 265 267 268 270 271 272 272 271 270 269 268 267 267 266 265 265 266 268 269 270 271 273 273 274 275 276 277 278 278 278 278 278 279 280 281 282 282 283 284 286 287 287 287 288 289 290 292 293 295 297 299 301 302 303 304 304 305 305 306 306 306 305 305 305 306 307 309 310
255 256 257 257 258 260 261 262 261 261 262 261 260 260 261 262 263 264 265 267 268 269 270 270 270 270 269 268 267 266 265 264 265 266 267 268 270 271 271 272 273 273 274 275 276 276 276 277 278 278 279 280 281 281 283 284 285 286 286 287 288 289 291 292 294 296 298 299 301 302 302 303 304 304 305 306 306 305 304 304 304 306 307 309 311
255 255 255 256 257 258 260 261 261 260 260 259 259 259 260 260 261 262 263 264 265 266 267 268 269 269 269 267 266 265 264 264 265 266 267 268 269 270 270 271 272 272 273 274 275 275 276 276 277 278 278 279 280 281 283 284 285 285 286 287 288 290 291 292 294 296 298 299 300 301 302 302 303 304 305 305 305 304 304 304 305 306 308 310 311
256 256 255 255 255 256 258 259 259 259 259 258 258 259 260 259 259 259 261 262 263 264 265 267 268 268 268 267 265 265 264 265 265 266 267 268 268 269 270 270 271 272 273 273 274 274 275 275 276 277 277 278 280 281 282 283 284 285 286 287 288 290 291 292 294 296 298 299 300 300 301 302 303 304 304 304 304 304 304 304 305 306 308 310 312
257 256 255 255 255 255 256 257 257 257 257 258 258 258 259 258 257 258 259 260 262 263 264 266 267 267 267 266 265 264 264 265 265 266 267 267 268 269 270 271 271 271 272 272 273 273 274 274 275 276 277 278 279 281 282 283 284 285 286 287 288 290 291 292 294 296 297 298 299 299 300 301 302 303 303 304 304 304 304 304 305 306 309 311 312
257 257 256 255 255 256 256 256 256 256 256 256 257 257 257 257 257 257 258 260 261 262 263 264 266 266 266 265 264 264 264 265 266 266 267 267 268 269 270 271 271 271 271 271 272 273 273 274 274 275 277 278 279 280 281 282 283 285 286 287 289 290 291 293 295 296 296 297 297 298 299 300 302 303 304 304 304 303 303 303 305 307 310 311 313
259 258 257 256 256 256 256 256 255 255 255 255 256 256 256 256 256 257 258 259 260 261 262 263 265 266 265 264 263 263 264 264 265 265 266 267 268 269 270 270 270 270 271 271 272 272 273 274 274 275 276 278 279 280 281 283 284 285 286 287 289 290 292 293 294 294 295 296 297 298 299 300 302 303 304 304 303 303 303 304 307 309 311 313 314
261 261 260 259 258 257 257 257 256 255 255 255 255 255 256 256 256 257 258 259 259 260 261 263 264 265 265 264 263 263 263 263 264 265 266 267 268 268 269 270 270 270 270 271 271 272 273 274 274 275 276 278 279 281 282 283 284 285 286 288 289 291 292 293 293 294 295 296 297 298 299 300 302 303 303 303 303 304 305 307 309 311 312 314 314
264 263 262 261 260 259 259 259 258 257 256 256 256 256 257 257 257 258 258 259 260 261 261 262 263 264 263 263 262 262 262 263 264 264 265 266 267 267 268 269 269 269 269 270 271 272 273 274 275 276 277 279 280 281 282 283 284 285 287 288 289 291 291 292 293 294 295 296 297 298 299 300 301 301 302 303 304 306 308 309 311 312 313 314 314
266 265 264 263 262 261 260 260 260 259 259 258 258 258 257 257 257 258 258 259 260 261 261 261 262 262 261 261 261 261 262 263 263 264 264 265 266 267 267 267 268 268 269 270 271 272 273 274 275 276 278 279 280 281 282 283 284 285 287 288 289 290 291 292 293 294 295 296 297 298 299 299 300 301 302 304 306 308 310 311 312 312 313 313 314
266 267 267 265 264 262 261 261 261 261 260 260 260 259 258 258 257 257 258 258 259 260 260 260 260 259 259 260 260 261 262 262 262 263 264 265 265 266 267 267 268 269 270 271 272 273 274 275 276 277 278 279 280 281 282 283 284 286 287 288 290 290 291 292 292 293 294 296 297 298 298 299 300 302 304 306 308 309 310 311 311 312 313 313 313
266 266 267 267 266 264 263 262 262 262 262 262 261 260 259 258 257 256 257 258 258 259 259 258 258 258 258 259 259 260 260 261 262 262 263 264 264 265 266 267 268 269 270 271 272 273 275 276 277 278 279 280 281 281 282 283 285 286 288 289 289 290 291 292 292 293 294 295 296 298 300 301 302 304 306 307 308 309 310 310 311 312 312 312 313
263 264 265 266 266 265 263 262 262 262 262 262 262 261 260 258 257 256 256 257 258 258 258 258 258 258 259 259 259 260 260 260 261 262 262 263 264 265 266 267 268 269 270 271 273 274 275 277 278 279 280 280 280 281 282 284 285 287 288 288 289 290 291 291 292 292 293 294 296 299 301 303 304 305 305 306 307 308 309 310 311 311 312 312 312
260 261 263 263 264 264 264 263 262 262 262 262 262 261 260 259 257 256 257 258 258 258 258 258 258 259 260 260 260 260 260 260 261 261 262 263 264 265 266 267 268 269 271 272 274 276 277 278 279 279 280 280 280 281 283 284 286 287 288 289 290 290 291 291 291 292 293 295 297 298 300 301 302 303 304 305 307 308 309 310 310 311 311 311 312
259 259 260 261 262 262 263 262 262 262 262 261 261 260 260 259 258 258 258 259 259 259 259 259 260 261 261 262 262 261 261 261 261 262 263 264 264 266 266 267 269 271 272 274 275 276 277 278 279 279 279 280 281 282 283 285 286 287 289 289 290 290 290 291 292 293 294 295 296 297 298 299 300 301 303 305 307 308 309 309 310 310 310 311 311
260 258 257 257 259 260 261 261 262 262 262 261 260 259 259 259 258 258 258 258 259 259 259 260 261 262 263 263 263 263 262 262 262 262 263 264 265 266 268 269 271 273 274 275 276 276 277 278 278 279 280 280 281 282 284 285 287 288 289 289 289 290 290 291 292 292 293 294 294 295 296 297 298 300 303 305 306 307 308 309 309 310 310 310 311
260 258 256 254 255 257 259 259 260 261 262 262 261 260 259 258 258 257 257 257 258 258 259 261 262 263 263 264 264 264 263 263 263 263 264 265 267 268 270 271 272 273 274 275 276 277 278 279 280 280 280 280 281 282 284 286 287 288 288 288 289 289 290 291 291 292 292 293 293 294 295 296 298 301 303 305 306 307 308 308 309 309 310 310 311
258 258 256 254 253 254 256 257 258 259 260 261 261 261 260 259 259 258 258 258 258 259 260 261 262 263 264 264 264 264 264 264 264 265 266 267 268 269 271 272 273 274 275 276 277 278 279 280 280 279 280 280 282 284 286 287 288 288 288 288 288 288 289 290 291 292 292 292 293 294 295 296 299 302 304 305 306 306 307 308 308 309 310 310 311
255 255 255 254 253 253 254 254 255 257 259 260 261 261 261 261 260 260 259 260 260 261 262 264 265 265 265 265 265 264 264 265 265 266 267 268 270 271 272 273 274 275 275 276 277 278 279 278 279 279 280 282 284 285 286 287 288 288 288 288 288 289 290 291 291 292 292 293 293 294 296 298 300 302 304 305 305 306 307 307 308 309 310 311 312
251 251 252 253 254 254 254 254 255 258 259 261 262 263 263 263 262 262 262 263 263 264 265 267 267 267 267 266 266 266 266 266 267 268 269 270 271 272 272 273 274 275 276 276 277 278 278 278 279 280 281 282 283 283 284 286 288 288 288 288 289 289 290 291 292 292 293 293 294 295 297 300 301 303 304 304 305 306 306 307 308 309 310 311 311
249 248 249 250 252 254 256 256 257 259 261 263 263 264 265 265 265 265 265 266 266 267 268 268 269 268 268 268 268 267 267 268 268 269 270 270 271 272 273 274 275 275 275 276 276 277 278 279 279 280 280 281 281 281 282 285 287 287 287 287 288 289 290 291 292 292 293 294 295 297 299 300 302 302 303 304 305 305 306 307 308 309 310 310 311
249 249 250 251 251 252 254 256 257 259 261 263 263 264 264 266 266 267 268 268 268 268 269 269 269 269 269 269 269 269 269 268 268 269 269 270 271 272 273 274 274 274 273 273 274 275 276 277 278 278 279 280 280 281 282 284 285 285 286 287 288 289 291 291 292 293 294 295 297 298 299 300 301 302 303 304 304 305 306 307 308 309 309 310 310
248 251 253 254 252 251 253 256 258 259 260 261 262 262 262 263 265 266 267 268 268 269 269 270 270 269 269 269 268 268 268 268 268 269 270 271 271 271 272 272 271 271 271 270 271 272 273 275 276 277 279 280 280 281 282 283 284 284 285 287 288 290 291 291 292 294 295 296 298 298 299 300 301 302 303 304 305 306 307 307 308 308 309 309 309
Height
5796 5796 5796 5796 5797 5797 5797 5797 5797 5797 5797 5797 5797 5797 5797 5797 5797 5796 5796 5796 5795 5795 5795 5794 5794 5793 5792 5792 5792 5791 5791 5790 5789 5788 5787 5786 5785 5784 5782 5780 5778 5777 5775 5773 5771 5768 5766 5764 5762 5760 5758 5757 5755 5753 5751 5749 5748 5746 5745 5743 5741 5739 5737 5735 5733 5731 5729 5727 5724 5722 5719 5717 5714 5711 5708 5706 5703 5699 5696 5692 5688 5685 5681 5677 5674
5791 5791 5791 5791 5792 5792 5792 5792 5792 5792 5792 5792 5792 5792 5792 5792 5791 5791 5790 5790 5790 5790 5790 5790 5789 5789 5788 5788 5787 5787 5786 5785 5784 5783 5782 5781 5780 5778 5777 5775 5773 5772 5770 5768 5766 5763 5761 5760 5758 5756 5754 5752 5750 5748 5746 5745 5743 5742 5741 5739 5737 5735 5733 5731 5729 5727 5725 5723 5720 5718 5715 5712 5710 5707 5704 5701 5698 5694 5691 5687 5684 5680 5676 5672 5668
5785 5786 5786 5786 5786 5786 5786 5787 5787 5787 5787 5787 5787 5787 5786 5786 5785 5785 5785 5785 5785 5785 5785 5785 5784 5784 5784 5783 5782 5781 5781 5780 5778 5777 5776 5776 5774 5773 5772 5770 5768 5766 5765 5763 5760 5758 5757 5755 5753 5751 5749 5748 5746 5743 5742 5740 5739 5737 5736 5735 5733 5731 5729 5727 5725 5723 5721 5719 5716 5714 5711 5708 5706 5703 5699 5696 5693 5690 5686 5683 5679 5675 5671 5667 5663
5780 5780 5781 5780 5780 5781 5781 5781 5781 5782 5782 5781 5782 5781 5781 5781 5780 5780 5780 5780 5780 5780 5780 5780 5779 5779 5779 5778 5777 5776 5775 5774 5773 5772 5771 5770 5769 5768 5766 5764 5763 5761 5760 5757 5755 5753 5751 5750 5748 5746 5744 5743 5741 5739 5737 5736 5734 5733 5732 5730 5729 5727 5725 5723 5721 5720 5718 5715 5712 5710 5707 5704 5701 5697 5694 5691 5688 5685 5682 5678 5674 5670 5666 5662 5659
5774 5774 5775 5775 5775 5775 5775 5776 5776 5776 5776 5776 5776 5776 5776 5776 5776 5776 5776 5775 5775 5775 5775 5775 5774 5774 5773 5772 5772 5771 5770 5769 5768 5767 5766 5765 5764 5762 5760 5759 5758 5756 5754 5752 5750 5748 5746 5745 5743 5741 5740 5738 5736 5734 5733 5731 5730 5729 5727 5726 5724 5723 5721 5719 5718 5716 5713 5711 5708 5704 5701 5698 5695 5692 5689 5686 5684 5680 5677 5673 5669 5665 5661 5657 5653
5767 5768 5769 5769 5770 5770 5770 5771 5771 5771 5771 5771 5771 5771 5771 5771 5771 5771 5770 5770 5770 5769 5769 5769 5769 5768 5767 5766 5766 5765 5764 5763 5762 5761 5760 5759 5758 5757 5755 5754 5752 5750 5748 5746 5745 5743 5741 5739 5737 5736 5735 5733 5732 5730 5729 5727 5726 5725 5723 5721 5720 5718 5717 5715 5713 5710 5708 5705 5702 5699 5696 5693 5690 5687 5684 5681 5678 5675 5671 5667 5664 5660 5656 5652 5648
5762 5763 5764 5764 5765 5765 5765 5765 5766 5766 5766 5766 5766 5766 5766 5766 5765 5765 5764 5764 5764 5764 5763 5763 5762 5762 5761 5760 5760 5759 5758 5757 5756 5756 5754 5753 5752 5751 5750 5748 5747 5745 5743 5741 5739 5738 5736 5734 5733 5731 5730 5729 5727 5726 5724 5723 5722 5720 5718 5717 5715 5713 5711 5709 5707 5705 5702 5699 5696 5693 5691 5688 5685 5682 5679 5676 5673 5669 5665 5662 5658 5654 5650 5647 5643
5755 5756 5758 5759 5759 5759 5760 5760 5761 5761 5761 5761 5761 5761 5761 5760 5759 5759 5758 5758 5758 5757 5757 5757 5756 5756 5755 5754 5753 5752 5752 5751 5750 5749 5748 5747 5746 5745 5743 5742 5741 5739 5737 5735 5734 5733 5731 5729 5728 5726 5725 5724 5723 5721 5720 5719 5717 5715 5714 5712 5710 5708 5706 5704 5701 5699 5696 5694 5691 5688 5685 5682 5679 5676 5673 5670 5667 5663 5660 5657 5653 5649 5645 5642 5638
5748 5750 5751 5752 5753 5753 5754 5755 5755 5756 5756 5756 5755 5755 5754 5754 5753 5753 5752 5752 5752 5751 5751 5750 5750 5749 5748 5748 5747 5746 5746 5745 5744 5743 5741 5740 5740 5738 5737 5736 5735 5733 5731 5730 5728 5727 5726 5724 5723 5722 5720 5719 5718 5716 5715 5713 5712 5710 5708 5706 5704 5702 5700 5697 5695 5693 5691 5688 5685 5682 5679 5676 5673 5670 5667 5664 5661 5658 5654 5651 5647 5643 5640 5636 5633
5742 5744 5745 5746 5746 5747 5748 5748 5749 5749 5749 5749 5749 5748 5748 5747 5747 5746 5746 5745 5745 5744 5744 5743 5743 5742 5742 5741 5740 5740 5739 5738 5737 5736 5735 5734 5733 5732 5731 5730 5729 5727 5726 5724 5723 5721 5720 5719 5718 5716 5715 5714 5712 5711 5709 5707 5706 5704 5702 5700 5698 5696 5694 5691 5689 5687 5684 5681 5678 5676 5673 5670 5667 5665 5661 5658 5655 5652 5649 5646 5642 5638 5634 5631 5627
5736 5737 5738 5739 5740 5740 5741 5741 5742 5742 5742 5742 5742 5741 5741 5740 5740 5739 5739 5738 5738 5737 5737 5737 5736 5735 5735 5734 5734 5733 5733 5732 5731 5729 5728 5727 5726 5725 5725 5724 5723 5722 5720 5719 5717 5716 5715 5713 5712 5711 5709 5708 5706 5705 5703 5702 5700 5698 5696 5694 5692 5690 5688 5685 5683 5680 5677 5674 5672 5670 5668 5665 5661 5659 5656 5653 5650 5646 5643 5640 5636 5632 5629 5626 5622
5729 5731 5732 5732 5733 5733 5734 5734 5735 5735 5735 5735 5734 5734 5734 5733 5733 5732 5732 5731 5731 5730 5730 5730 5729 5728 5728 5728 5727 5727 5726 5725 5724 5722 5721 5720 5720 5719 5719 5718 5717 5716 5715 5713 5711 5710 5709 5708 5706 5705 5703 5702 5700 5699 5698 5696 5694 5692 5690 5687 5685 5683 5681 5678 5676 5673 5670 5668 5666 5664 5662 5659 5656 5653 5650 5647 5644 5640 5637 5634 5630 5627 5624 5620 5617
5722 5724 5725 5725 5725 5726 5726 5727 5727 5727 5727 5727 5727 5727 5727 5726 5726 5725 5725 5724 5724 5723 5723 5722 5722 5722 5721 5721 5720 5719 5719 5718 5717 5715 5714 5714 5713 5713 5713 5712 5711 5710 5709 5707 5706 5704 5703 5702 5700 5699 5697 5696 5695 5693 5692 5690 5688 5686 5683 5681 5679 5676 5674 5671 5669 5667 5665 5663 5661 5658 5655 5653 5650 5646 5643 5640 5637 5634 5630 5627 5624 5621 5618 5615 5611
5715 5716 5717 5717 5718 5718 5718 5719 5719 5719 5719 5719 5719 5719 5719 5718 5718 5718 5717 5717 5716 5716 5715 5715 5715 5714 5714 5713 5713 5713 5712 5711 5710 5709 5708 5707 5707 5707 5707 5706 5705 5704 5702 5701 5699 5698 5697 5696 5694 5693 5691 5690 5689 5687 5685 5684 5681 5679 5677 5674 5672 5670 5668 5666 5663 5661 5659 5657 5655 5652 5649 5647 5644 5640 5636 5633 5630 5627 5624 5621 5618 5615 5612 5609 5605
5708 5708 5709 5709 5710 5710 5711 5711 5711 5711 5711 5711 5711 5711 5710 5710 5710 5710 5709 5709 5708 5708 5707 5707 5707 5707 5706 5706 5706 5705 5705 5704 5703 5702 5702 5701 5701 5700 5700 5699 5698 5697 5696 5694 5693 5691 5691 5690 5688 5687 5685 5684 5682 5681 5679 5677 5675 5672 5670 5668 5667 5665 5663 5660 5658 5656 5653 5651 5648 5645 5643 5640 5637 5634 5630 5627 5624 5621 5618 5615 5612 5609 5605 5602 5599
5699 5700 5700 5701 5701 5701 5702 5702 5702 5702 5702 5703 5702 5702 5702 5701 5701 5701 5701 5701 5700 5700 5699 5699 5699 5699 5699 5699 5699 5698 5698 5697 5697 5696 5695 5695 5694 5693 5693 5692 5691 5690 5689 5688 5686 5685 5684 5683 5682 5680 5679 5678 5676 5675 5673 5670 5668 5666 5664 5663 5661 5659 5657 5655 5653 5650 5647 5644 5642 5639 5636 5633 5630 5627 5624 5620 5617 5614 5611 5608 5605 5602 5599 5595 5592
5690 5690 5691 5692 5692 5692 5693 5693 5693 5693 5693 5693 5693 5693 5693 5693 5693 5693 5693 5692 5691 5691 5691 5691 5691 5691 5691 5691 5691 5691 5691 5691 5690 5689 5688 5687 5687 5686 5686 5685 5684 5683 5682 5681 5680 5679 5678 5676 5675 5674 5673 5672 5670 5668 5666 5664 5662 5660 5659 5657 5655 5653 5651 5649 5647 5644 5641 5638 5635 5633 5630 5627 5624 5621 5617 5614 5611 5608 5605 5602 5598 5595 5592 5588 5585
5680 5680 5681 5681 5681 5682 5683 5683 5683 5683 5683 5684 5684 5684 5684 5684 5683 5684 5683 5683 5682 5682 5682 5682 5682 5683 5683 5683 5684 5684 5684 5684 5683 5682 5681 5680 5680 5679 5678 5678 5677 5677 5676 5674 5673 5672 5671 5670 5669 5668 5667 5665 5664 5662 5660 5658 5656 5655 5653 5651 5649 5646 5645 5643 5640 5637 5635 5632 5629 5626 5623 5620 5617 5614 5611 5608 5604 5601 5598 5595 5591 5588 5584 5581 5577
5672 5672 5672 5672 5673 5674 5674 5674 5674 5674 5674 5674 5674 5674 5675 5674 5674 5674 5674 5674 5673 5673 5674 5674 5674 5675 5676 5676 5676 5676 5676 5676 5676 5674 5674 5673 5673 5672 5671 5670 5670 5669 5669 5667 5666 5665 5664 5663 5662 5661 5659 5658 5657 5655 5654 5652 5651 5649 5647 5644 5642 5639 5638 5635 5633 5630 5628 5625 5623 5620 5617 5614 5611 5608 5604 5601 5597 5594 5590 5587 5584 5580 5577 5574 5570
5664 5665 5665 5665 5666 5667 5667 5666 5666 5666 5665 5665 5665 5665 5665 5665 5665 5666 5666 5666 5666 5666 5666 5667 5668 5668 5668 5669 5669 5669 5669 5668 5667 5667 5666 5665 5665 5665 5664 5663 5663 5662 5661 5660 5659 5658 5657 5655 5654 5653 5652 5651 5649 5648 5647 5646 5644 5642 5640 5638 5635 5632 5630 5628 5626 5624 5621 5619 5616 5613 5611 5607 5604 5601 5598 5594 5590 5586 5583 5580 5576 5573 5570 5566 5562
5654 5655 5656 5657 5659 5660 5659 5658 5658 5657 5656 5656 5656 5657 5657 5657 5658 5658 5659 5658 5659 5659 5659 5660 5661 5661 5661 5661 5661 5661 5661 5660 5660 5659 5658 5658 5658 5657 5656 5656 5655 5654 5654 5653 5652 5651 5650 5648 5647 5646 5645 5644 5643 5642 5641 5639 5638 5635 5633 5630 5628 5625 5623 5621 5619 5617 5614 5612 5609 5606 5603 5600 5597 5593 5590 5587 5583 5579 5576 5573 5569 5566 5563 5559 5555
5645 5646 5647 5650 5651 5652 5652 5651 5650 5650 5649 5649 5649 5650 5650 5651 5651 5651 5651 5651 5652 5652 5652 5653 5654 5654 5654 5654 5654 5653 5653 5652 5652 5651 5651 5650 5650 5649 5649 5648 5647 5647 5646 5645 5644 5644 5643 5642 5641 5640 5638 5637 5636 5635 5634 5632 5630 5628 5626 5624 5621 5619 5617 5614 5612 5610 5607 5605 5602 5599 5596 5593 5589 5586 5582 5579 5576 5573 5569 5566 5562 5559 5555 5552 5548
5637 5637 5639 5641 5642 5643 5643 5643 5642 5642 5642 5643 5643 5644 5644 5644 5644 5644 5644 5644 5644 5645 5645 5646 5646 5647 5647 5646 5646 5646 5645 5645 5644 5643 5643 5643 5642 5642 5641 5640 5639 5639 5638 5638 5638 5637 5636 5635 5634 5633 5632 5630 5629 5628 5627 5625 5623 5621 5619 5617 5615 5612 5610 5607 5605 5603 5600 5597 5594 5591 5588 5585 5581 5578 5575 5572 5569 5566 5563 5559 5555 5551 5547 5544 5540
5627 5629 5630 5631 5633 5634 5634 5634 5635 5635 5636 5636 5636 5637 5637 5637 5636 5636 5636 5637 5637 5637 5638 5638 5638 5639 5639 5639 5638 5638 5637 5637 5637 5636 5636 5635 5634 5634 5634 5633 5632 5632 5631 5631 5630 5630 5629 5628 5627 5626 5624 5623 5622 5621 5619 5618 5616 5614 5612 5610 5608 5605 5603 5600 5598 5595 5592 5589 5586 5583 5581 5577 5574 5571 5568 5565 5562 5559 5556 5552 5548 5545 5541 5537 5533
5618 5620 5621 5622 5623 5624 5625 5626 5627 5627 5628 5628 5628 5628 5628 5628 5628 5628 5628 5628 5629 5629 5629 5630 5630 5631 5631 5630 5630 5630 5629 5629 5629 5628 5628 5628 5627 5627 5626 5626 5625 5625 5624 5623 5623 5622 5621 5620 5619 5618 5617 5616 5615 5613 5612 5610 5609 5607 5605 5603 5601 5598 5596 5593 5590 5587 5585 5582 5579 5576 5574 5570 5567 5564 5561 5558 5555 5552 5549 5545 5542 5538 5534 5530 5526
5610 5612 5612 5613 5614 5615 5616 5618 5618 5619 5620 5620 5620 5620 5620 5620 5620 5620 5619 5620 5620 5620 5621 5621 5621 5622 5622 5622 5622 5621 5621 5621 5621 5621 5620 5620 5620 5619 5619 5618 5618 5617 5617 5616 5616 5615 5614 5613 5612 5611 5610 5608 5607 5606 5605 5603 5601 5599 5597 5596 5594 5591 5588 5586 5583 5580 5577 5574 5572 5570 5567 5564 5561 5558 5555 5552 5549 5545 5542 5538 5535 5531 5527 5524 5520
5601 5603 5603 5604 5605 5606 5607 5609 5610 5611 5612 5612 5612 5612 5612 5611 5611 5611 5611 5611 5611 5612 5612 5612 5613 5614 5614 5614 5613 5613 5613 5613 5613 5613 5613 5613 5612 5611 5611 5611 5611 5610 5610 5609 5608 5608 5607 5606 5605 5603 5602 5601 5600 5599 5597 5595 5593 5592 5590 5588 5586 5584 5581 5578 5575 5573 5570 5568 5565 5563 5560 5557 5554 5551 5548 5545 5542 5538 5535 5531 5528 5524 5520 5517 5513
5592 5593 5594 5595 5595 5597 5598 5599 5601 5603 5603 5604 5604 5604 5604 5603 5603 5603 5603 5603 5603 5604 5604 5604 5605 5605 5605 5606 5606 5606 5606 5606 5606 5605 5605 5604 5604 5604 5604 5604 5603 5603 5602 5601 5601 5600 5599 5598 5597 5596 5595 5593 5592 5591 5589 5588 5586 5584 5582 5581 5579 5576 5574 5571 5568 5566 5563 5561 5559 5556 5553 5550 5547 5544 5541 5537 5534 5531 5528 5524 5521 5517 5513 5510 5506
5581 5583 5585 5586 5587 5588 5589 5591 5593 5594 5594 5595 5595 5596 5596 5596 5595 5596 5596 5595 5596 5596 5596 5597 5597 5597 5597 5598 5598 5598 5598 5598 5597 5597 5596 5596 5596 5596 5597 5596 5596 5595 5594 5593 5593 5592 5591 5590 5589 5588 5587 5586 5584 5583 5581 5580 5578 5577 5575 5573 5571 5569 5567 5564 5562 5559 5556 5554 5552 5549 5546 5543 5540 5537 5533 5530 5526 5523 5520 5517 5513 5510 5506 5502 5498
5572 5574 5575 5577 5578 5579 5580 5582 5583 5584 5585 5586 5586 5587 5587 5587 5587 5588 5588 5588 5588 5588 5588 5589 5589 5589 5589 5590 5590 5590 5590 5589 5589 5589 5589 5589 5589 5589 5589 5588 5588 5587 5586 5586 5585 5584 5583 5582 5581 5580 5579 5578 5576 5575 5574 5572 5571 5569 5567 5565 5563 5561 5559 5557 5554 5552 5549 5547 5544 5541 5538 5536 5533 5529 5526 5522 5519 5515 5512 5509 5506 5502 5498 5494 5490
5562 5564 5566 5567 5568 5569 5570 5572 5573 5575 5576 5577 5577 5578 5579 5578 5579 5580 5580 5579 5580 5580 5580 5580 5580 5581 5581 5581 5581 5582 5582 5581 5581 5581 5581 5581 5581 5581 5581 5580 5579 5579 5578 5578 5577 5576 5575 5575 5573 5572 5571 5570 5568 5567 5566 5565 5563 5561 5559 5557 5555 5553 5551 5549 5546 5544 5541 5539 5536 5533 5530 5528 5525 5522 5519 5515 5511 5508 5504 5501 5498 5494 5490 5486 5481
5553 5555 5556 5557 5558 5559 5560 5562 5564 5565 5567 5567 5568 5569 5570 5569 5570 5571 5571 5571 5571 5571 5572 5572 5572 5573 5573 5573 5573 5573 5573 5573 5573 5573 5573 5573 5573 5573 5573 5572 5572 5571 5571 5570 5569 5568 5567 5567 5565 5564 5563 5561 5560 5559 5558 5556 5555 5553 5551 5549 5547 5545 5543 5541 5539 5536 5533 5531 5528 5525 5522 5519 5517 5514 5511 5507 5504 5500 5496 5493 5489 5485 5482 5477 5472
5543 5545 5546 5547 5548 5549 5550 5552 5554 5556 5557 5558 5558 5560 5560 5560 5561 5561 5561 5562 5562 5562 5563 5563 5564 5564 5564 5564 5564 5564 5564 5565 5565 5565 5565 5565 5565 5565 5565 5564 5564 5563 5562 5562 5561 5560 5559 5558 5557 5556 5555 5553 5552 5551 5549 5548 5546 5544 5543 5541 5539 5537 5535 5533 5531 5528 5525 5522 5519 5516 5514 5511 5508 5506 5502 5499 5496 5492 5488 5485 5481 5477 5473 5468 5463
5534 5535 5537 5538 5539 5540 5541 5543 5544 5546 5547 5547 5548 5549 5550 5550 5551 5552 5552 5553 5553 5553 5554 5554 5555 5555 5555 5555 5555 5555 5556 5556 5556 5556 5556 5556 5556 5557 5556 5556 5555 5555 5554 5553 5552 5551 5550 5550 5548 5547 5546 5545 5544 5542 5541 5539 5538 5536 5534 5533 5531 5529 5527 5525 5523 5520 5517 5514 5511 5508 5505 5503 5500 5497 5494 5490 5487 5483 5480 5476 5472 5468 5463 5458 5453
5524 5526 5527 5528 5529 5530 5532 5533 5534 5536 5537 5537 5538 5539 5540 5540 5541 5542 5543 5544 5544 5544 5545 5545 5546 5546 5546 5546 5546 5546 5547 5547 5548 5548 5548 5548 5548 5548 5547 5547 5546 5546 5545 5544 5543 5542 5542 5541 5540 5539 5538 5537 5535 5534 5532 5531 5529 5527 5526 5524 5522 5521 5519 5516 5514 5511 5508 5506 5503 5500 5497 5494 5491 5488 5485 5481 5478 5474 5470 5466 5462 5458 5453 5448 5442
5514 5516 5517 5518 5520 5521 5522 5523 5525 5526 5527 5527 5528 5529 5530 5531 5532 5532 5533 5534 5535 5535 5536 5536 5536 5537 5537 5537 5537 5538 5538 5538 5539 5539 5539 5539 5539 5538 5538 5537 5537 5536 5535 5535 5534 5533 5533 5532 5531 5530 5529 5528 5527 5526 5524 5522 5520 5519 5517 5515 5514 5512 5509 5507 5505 5502 5500 5497 5494 5491 5488 5485 5482 5479 5476 5472 5468 5465 5461 5457 5452 5447 5442 5437 5431
5505 5506 5507 5509 5510 5511 5512 5514 5515 5516 5517 5518 5518 5519 5520 5521 5522 5523 5524 5525 5525 5526 5527 5527 5528 5528 5528 5528 5529 5529 5529 5529 5529 5529 5529 5529 5529 5529 5528 5528 5527 5526 5526 5525 5525 5524 5524 5523 5522 5521 5520 5520 5518 5517 5515 5514 5512 5510 5508 5506 5504 5502 5500 5498 5495 5493 5491 5488 5485 5482 5479 5476 5473 5470 5466 5463 5459 5455 5450 5446 5441 5436 5432 5426 5421
5496 5496 5497 5498 5500 5501 5502 5504 5505 5507 5508 5508 5509 5510 5510 5511 5512 5514 5515 5515 5516 5517 5518 5518 5519 5519 5519 5519 5520 5520 5520 5520 5520 5520 5520 5520 5520 5519 5519 5518 5518 5517 5517 5516 5516 5516 5515 5514 5513 5513 5512 5511 5510 5508 5507 5505 5503 5502 5499 5497 5495 5493 5490 5488 5486 5483 5481 5478 5475 5473 5470 5467 5464 5460 5457 5453 5449 5444 5439 5435 5430 5426 5421 5416 5411
5486 5487 5487 5488 5490 5491 5492 5494 5495 5497 5498 5499 5500 5500 5501 5501 5503 5504 5505 5506 5507 5507 5508 5509 5509 5509 5510 5510 5510 5511 5511 5511 5511 5511 5511 5510 5510 5509 5509 5509 5509 5508 5508 5508 5507 5507 5506 5505 5505 5504 5503 5502 5501 5500 5498 5496 5494 5493 5490 5488 5486 5484 5481 5479 5477 5474 5472 5469 5466 5463 5461 5457 5454 5451 5447 5443 5438 5434 5429 5425 5420 5416 5411 5406 5400
5477 5478 5478 5479 5481 5482 5483 5484 5485 5487 5488 5489 5490 5491 5492 5492 5493 5494 5495 5496 5497 5498 5499 5499 5499 5500 5500 5501 5501 5502 5502 5501 5502 5501 5501 5500 5500 5499 5499 5499 5499 5499 5499 5498 5498 5498 5497 5497 5496 5495 5495 5494 5492 5491 5489 5487 5485 5483 5481 5479 5477 5474 5472 5470 5468 5465 5463 5460 5457 5454 5451 5448 5445 5441 5437 5432 5428 5424 5419 5415 5410 5406 5401 5395 5390
5468 5469 5469 5470 5471 5472 5474 5475 5476 5477 5478 5479 5480 5481 5482 5483 5484 5484 5485 5486 5487 5488 5489 5489 5489 5490 5491 5491 5491 5492 5492 5492 5492 5491 5491 5490 5490 5489 5490 5490 5490 5490 5489 5489 5489 5489 5489 5488 5488 5487 5486 5484 5483 5481 5480 5478 5476 5474 5472 5469 5467 5465 5463 5461 5459 5456 5453 5451 5448 5445 5441 5438 5434 5431 5427 5423 5418 5414 5409 5405 5400 5395 5390 5385 5379
5459 5460 5460 5461 5462 5463 5465 5465 5466 5467 5468 5469 5471 5472 5472 5473 5474 5475 5476 5477 5477 5478 5479 5479 5479 5480 5481 5481 5482 5482 5482 5482 5482 5482 5481 5481 5480 5480 5480 5480 5480 5480 5481 5481 5481 5481 5480 5480 5479 5477 5476 5475 5473 5472 5471 5469 5467 5465 5462 5460 5458 5456 5454 5452 5449 5446 5443 5441 5438 5435 5431 5428 5425 5421 5417 5413 5408 5404 5399 5395 5390 5385 5380 5374 5369
5449 5451 5451 5452 5453 5454 5455 5456 5457 5458 5459 5460 5461 5462 5462 5463 5464 5465 5466 5467 5468 5468 5469 5469 5470 5470 5471 5471 5472 5472 5472 5472 5473 5473 5472 5472 5471 5471 5471 5471 5471 5472 5472 5472 5472 5472 5471 5470 5469 5468 5466 5465 5464 5463 5461 5459 5457 5455 5453 5451 5449 5447 5444 5442 5440 5437 5434 5431 5428 5425 5422 5419 5415 5412 5407 5403 5398 5394 5389 5385 5380 5375 5370 5364 5359
5439 5441 5442 5443 5444 5445 5445 5446 5447 5448 5449 5450 5451 5452 5453 5454 5455 5456 5457 5457 5458 5458 5459 5459 5460 5460 5461 5461 5462 5462 5463 5463 5463 5463 5463 5463 5462 5462 5462 5462 5463 5463 5463 5463 5463 5462 5461 5460 5459 5458 5457 5456 5454 5453 5451 5449 5447 5445 5443 5441 5439 5437 5435 5433 5430 5427 5424 5421 5418 5415 5412 5409 5406 5402 5398 5393 5388 5383 5379 5374 5369 5364 5359 5354 5349
5428 5430 5431 5433 5434 5435 5436 5437 5438 5439 5440 5441 5442 5443 5443 5444 5445 5446 5447 5447 5448 5448 5448 5449 5450 5450 5451 5451 5452 5452 5453 5453 5453 5453 5453 5453 5453 5453 5454 5454 5454 5454 5454 5453 5453 5452 5451 5451 5449 5448 5447 5446 5445 5443 5441 5439 5438 5435 5433 5432 5430 5428 5425 5423 5420 5418 5415 5411 5408 5405 5402 5399 5396 5392 5388 5383 5378 5373 5368 5364 5359 5354 5349 5343 5338
5419 5420 5421 5422 5423 5425 5426 5426 5428 5429 5431 5432 5433 5433 5434 5434 5435 5436 5437 5437 5438 5438 5438 5439 5440 5440 5441 5442 5442 5443 5443 5443 5443 5444 5444 5444 5444 5444 5444 5444 5444 5444 5444 5444 5443 5442 5442 5441 5439 5438 5437 5436 5435 5433 5431 5430 5428 5426 5424 5422 5420 5418 5415 5413 5410 5408 5405 5401 5398 5395 5391 5388 5385 5382 5377 5372 5368 5363 5358 5353 5348 5343 5338 5333 5327
5408 5410 5411 5412 5413 5414 5415 5416 5418 5419 5421 5422 5423 5424 5425 5425 5426 5426 5427 5428 5428 5428 5429 5429 5430 5431 5431 5432 5432 5433 5433 5433 5434 5434 5434 5435 5435 5435 5435 5435 5435 5435 5434 5434 5433 5432 5431 5430 5429 5428 5427 5426 5424 5423 5421 5420 5418 5416 5414 5412 5410 5407 5405 5402 5400 5397 5395 5391 5388 5384 5381 5377 5374 5370 5366 5362 5357 5352 5347 5342 5337 5332 5327 5322 5317
5398 5399 5400 5401 5402 5403 5404 5406 5407 5409 5411 5412 5413 5414 5415 5416 5416 5417 5417 5418 5419 5419 5420 5420 5421 5421 5422 5422 5423 5423 5423 5424 5424 5425 5425 5425 5425 5425 5425 5425 5425 5424 5424 5423 5422 5421 5421 5420 5419 5418 5417 5415 5414 5413 5411 5410 5408 5406 5404 5401 5399 5397 5394 5392 5389 5387 5384 5381 5378 5374 5370 5367 5363 5359 5355 5351 5346 5341 5336 5331 5327 5322 5317 5312 5307
5387 5387 5389 5390 5391 5393 5394 5395 5397 5398 5400 5402 5403 5404 5405 5405 5406 5407 5408 5408 5409 5409 5410 5410 5411 5412 5412 5412 5413 5413 5414 5414 5415 5415 5415 5415 5415 5415 5415 5415 5414 5414 5413 5412 5411 5410 5410 5409 5408 5407 5406 5405 5404 5403 5401 5399 5397 5395 5393 5391 5388 5386 5384 5381 5379 5376 5373 5370 5367 5364 5360 5356 5352 5348 5344 5340 5335 5330 5326 5321 5316 5311 5306 5302 5297
5375 5376 5378 5379 5381 5382 5384 5385 5386 5388 5390 5391 5392 5393 5394 5395 5396 5396 5397 5398 5398 5399 5400 5400 5401 5401 5402 5403 5403 5404 5404 5405 5405 5405 5405 5405 5405 5405 5404 5404 5403 5403 5402 5402 5401 5400 5399 5398 5397 5396 5395 5394 5392 5391 5390 5388 5386 5384 5382 5380 5378 5376 5373 5370 5368 5366 5363 5360 5356 5352 5348 5345 5341 5337 5333 5329 5324 5319 5315 5310 5306 5301 5297 5292 5288
5364 5365 5368 5369 5371 5373 5374 5375 5376 5378 5379 5380 5382 5383 5384 5385 5385 5386 5387 5387 5388 5388 5389 5390 5390 5391 5392 5392 5393 5393 5394 5394 5394 5395 5395 5394 5394 5394 5393 5392 5392 5392 5392 5391 5391 5390 5389 5387 5386 5385 5383 5382 5381 5379 5378 5376 5375 5373 5371 5369 5367 5365 5362 5359 5357 5355 5352 5348 5345 5341 5337 5333 5330 5326 5322 5318 5313 5309 5304 5300 5296 5291 5287 5283 5279